TimePDT,TemperatureF,Dew PointF,Humidity,Sea Level PressureIn,VisibilityMPH,Wind Direction,Wind SpeedMPH,Gust SpeedMPH,PrecipitationIn,Events,Conditions,WindDirDegrees,DateUTC
12:52 AM,57.9,42.1,56,29.88,10.0,SE,6.9,-,N/A,,Clear,140,2013-06-12 07:52:00
1:52 AM,57.0,41.0,55,29.88,10.0,SSE,5.8,-,N/A,,Clear,160,2013-06-12 08:52:00
2:52 AM,57.0,41.0,55,29.87,10.0,SE,5.8,-,N/A,,Clear,140,2013-06-12 09:52:00
3:52 AM,57.0,44.1,62,29.86,10.0,SSE,6.9,-,N/A,,Clear,150,2013-06-12 10:52:00
4:52 AM,55.9,44.1,64,29.87,10.0,SSE,5.8,-,N/A,,Clear,160,2013-06-12 11:52:00
5:52 AM,55.9,44.1,64,29.87,10.0,SE,5.8,-,N/A,,Clear,140,2013-06-12 12:52:00
6:52 AM,57.9,44.1,60,29.87,10.0,SSE,8.1,-,N/A,,Clear,160,2013-06-12 13:52:00
7:52 AM,60.1,44.1,55,29.87,10.0,SSE,10.4,-,N/A,,Clear,150,2013-06-12 14:52:00
8:52 AM,62.1,43.0,50,29.88,10.0,South,16.1,24.2,N/A,,Clear,170,2013-06-12 15:52:00
9:52 AM,63.0,44.1,50,29.89,10.0,South,17.3,23.0,N/A,,Clear,170,2013-06-12 16:52:00
10:52 AM,64.0,39.9,41,29.91,10.0,South,16.1,25.3,N/A,,Clear,190,2013-06-12 17:52:00
11:52 AM,64.0,37.9,38,29.91,10.0,South,16.1,24.2,N/A,,Clear,190,2013-06-12 18:52:00
12:52 PM,64.0,35.1,34,29.91,10.0,South,13.8,25.3,N/A,,Clear,170,2013-06-12 19:52:00
1:52 PM,66.0,30.9,27,29.90,10.0,South,11.5,26.5,N/A,,Clear,190,2013-06-12 20:52:00
2:52 PM,66.9,30.9,26,29.89,10.0,SSW,10.4,17.3,N/A,,Clear,200,2013-06-12 21:52:00
3:52 PM,66.9,28.0,23,29.88,10.0,South,13.8,19.6,N/A,,Clear,190,2013-06-12 22:52:00
4:52 PM,64.9,30.9,28,29.89,10.0,SSW,12.7,20.7,N/A,,Clear,210,2013-06-12 23:52:00
5:52 PM,64.0,34.0,33,29.89,10.0,SW,11.5,20.7,N/A,,Clear,220,2013-06-13 00:52:00
6:52 PM,62.1,33.1,34,29.89,10.0,SW,8.1,16.1,N/A,,Clear,220,2013-06-13 01:52:00
7:52 PM,60.1,34.0,38,29.90,10.0,SW,8.1,-,N/A,,Clear,220,2013-06-13 02:52:00
8:52 PM,57.0,33.1,40,29.90,10.0,SW,3.5,-,N/A,,Clear,220,2013-06-13 03:52:00
9:52 PM,55.0,35.1,47,29.92,10.0,South,3.5,-,N/A,,Clear,170,2013-06-13 04:52:00
10:52 PM,52.0,33.1,49,29.93,10.0,SE,4.6,-,N/A,,Clear,130,2013-06-13 05:52:00
11:52 PM,52.0,32.0,47,29.93,10.0,ESE,3.5,-,N/A,,Clear,110,2013-06-13 06:52:00